Wind_Speed
24 24 25 25 25 25 25 25 26 25 25 23 24 25 24 24 25 25 24 25 24 23 23 24 24 24 25 24 25 25 25 26 27 27 28 29 29 29 29 30 30 30 30 30
24 24 25 25 25 25 24 24 25 25 24 23 24 24 24 24 24 24 23 23 23 23 23 23 24 24 24 24 25 25 25 26 27 27 28 29 29 29 29 30 30 30 29 29
24 25 26 25 24 24 24 24 24 24 23 22 23 22 23 23 23 23 22 22 23 23 23 24 24 24 24 25 25 26 26 26 27 27 28 28 29 29 29 29 29 29 28 28
25 25 26 24 24 24 24 23 23 24 23 23 23 22 22 23 23 23 23 22 23 23 23 24 24 25 25 26 26 26 26 27 27 27 27 27 28 28 28 28 28 28 27 27
25 26 26 25 24 24 24 23 23 23 22 23 23 23 23 23 23 23 24 24 24 24 24 24 25 26 26 26 26 26 27 27 27 27 27 28 28 28 28 27 27 26 26 26
25 26 26 25 24 24 25 24 22 22 23 23 23 22 22 23 23 24 24 23 24 24 24 25 25 26 27 26 26 26 27 27 27 27 27 27 27 27 26 26 26 25 25 25
26 26 26 25 25 25 25 24 23 22 22 23 23 22 22 23 23 24 24 23 23 24 24 25 25 25 26 26 26 27 28 28 27 27 27 27 27 26 25 26 26 25 26 25
27 27 26 26 26 26 25 24 24 22 22 23 23 22 22 23 24 24 24 24 24 24 25 25 25 25 26 26 27 27 27 27 27 26 26 26 25 25 25 25 26 26 26 25
27 27 27 26 25 25 26 25 25 24 23 24 24 23 23 23 24 24 25 25 25 26 26 25 25 26 25 25 26 26 26 26 26 26 26 25 24 24 24 25 25 25 24 24
28 27 27 27 26 26 27 26 25 25 25 25 25 24 24 24 24 24 25 25 25 25 25 25 26 26 26 25 25 25 26 25 26 26 26 25 24 24 24 24 25 24 24 24
28 28 27 27 27 27 28 27 26 26 26 26 25 25 24 25 25 24 25 25 24 24 24 25 25 25 25 25 25 25 25 25 25 25 24 24 24 24 25 24 24 24 24 24
28 27 28 27 28 28 28 27 26 26 26 25 26 26 25 24 25 25 25 25 24 23 23 23 23 24 24 24 25 25 25 25 25 25 24 24 23 23 23 24 24 24 24 23
28 28 28 28 27 28 28 28 27 26 26 25 25 25 25 24 24 24 24 24 23 23 23 23 24 24 24 25 24 24 24 24 23 23 23 23 23 23 23 23 23 23 22 22
28 28 28 28 27 27 27 27 26 26 25 25 25 25 25 24 24 23 23 23 23 24 24 24 23 23 23 23 24 23 23 22 22 22 22 22 22 22 22 22 21 21 20 19
28 28 28 27 27 27 27 27 26 25 25 26 26 25 25 24 24 24 24 24 24 24 24 24 23 23 22 22 23 23 23 22 22 22 21 21 21 21 21 21 20 20 19 19
27 28 28 27 27 27 26 26 25 25 25 25 25 25 25 25 24 24 24 24 24 24 24 24 24 23 23 23 23 23 22 22 21 21 20 20 20 21 21 20 20 19 19 18
26 26 27 26 26 25 25 25 25 25 25 24 25 24 24 24 24 24 24 24 23 23 23 23 23 22 22 23 23 22 21 21 20 20 20 20 20 20 20 19 18 18 17 17
25 25 25 25 24 23 23 24 24 24 23 23 23 23 23 23 23 23 23 23 23 22 22 22 21 21 22 22 21 21 20 20 20 19 19 19 19 19 18 18 17 17 17 17
24 25 25 25 24 23 23 24 24 23 23 22 23 23 23 23 23 22 22 23 23 22 22 21 21 21 20 20 20 20 20 19 19 19 18 18 17 17 17 17 16 17 17 17
25 26 26 25 24 24 24 24 24 23 23 23 24 24 23 23 22 22 21 21 21 20 20 21 21 20 20 19 19 19 20 19 19 18 18 17 17 17 17 17 17 18 18 18
26 26 25 25 24 24 24 24 23 23 24 24 24 24 23 23 22 22 22 21 20 20 20 20 19 18 18 18 18 18 18 18 18 17 17 17 17 17 17 17 18 18 18 18
26 25 24 24 24 24 24 24 24 24 24 24 24 24 23 22 22 21 21 21 20 20 20 19 18 18 18 18 18 18 17 17 17 16 16 15 16 16 16 17 17 18 18 18
26 25 24 25 25 24 24 24 24 24 24 23 23 23 23 22 22 22 21 21 21 21 20 20 19 19 18 18 18 18 17 17 16 16 16 16 16 16 17 17 17 18 18 18
25 25 25 25 24 24 24 23 23 23 23 23 23 23 23 22 22 22 22 21 21 22 21 21 20 19 18 18 18 18 18 18 18 18 18 18 18 18 18 19 19 18 19 19
26 25 25 25 25 24 25 25 25 25 24 24 24 23 23 22 22 22 22 23 23 23 22 22 21 20 19 19 18 19 19 19 20 20 20 20 20 20 20 20 20 20 20 20
26 26 27 26 26 26 26 26 26 26 26 25 25 24 23 23 23 23 23 23 23 23 23 21 21 21 20 20 20 20 20 20 20 21 21 21 21 21 21 21 21 21 21 21
26 27 27 27 27 27 27 27 26 26 26 26 25 24 24 24 24 24 24 24 24 23 22 22 21 21 21 21 21 21 21 21 20 20 20 20 21 21 21 21 22 22 21 21
Wind_Direction
283 286 287 289 290 290 289 290 292 294 294 297 295 294 292 290 289 287 285 283 280 280 280 278 278 278 278 276 275 278 279 278 279 279 278 278 277 277 277 277 278 278 278 279
281 284 286 287 290 291 290 292 293 293 295 297 295 291 292 292 290 287 285 283 281 280 279 279 279 279 278 277 277 279 281 280 280 281 280 280 280 278 278 278 279 279 280 282
282 283 284 287 291 290 290 292 295 296 298 296 294 291 292 290 288 285 284 282 280 280 280 280 281 279 278 279 279 280 281 281 281 281 281 281 281 279 278 278 279 279 281 282
283 285 285 291 288 290 291 292 294 296 297 296 293 292 291 289 287 286 284 284 284 283 282 282 281 279 279 280 281 281 282 282 281 281 281 280 279 279 278 279 280 279 281 283
285 286 286 287 289 291 293 291 292 295 296 295 292 290 290 290 288 286 284 283 283 283 283 283 282 282 281 281 282 281 282 282 281 282 281 280 280 280 278 278 279 281 283 284
285 286 286 286 287 290 292 292 293 294 294 294 294 291 291 290 289 288 286 284 284 284 284 284 284 284 281 280 282 284 285 285 284 283 282 283 282 280 278 278 281 284 285 285
283 286 287 286 285 289 290 292 291 293 293 294 295 295 293 291 289 288 286 286 286 286 286 286 285 284 281 280 282 284 285 285 283 282 283 283 282 280 279 278 281 285 286 286
282 285 289 287 285 286 288 288 288 290 292 295 295 295 295 292 290 289 287 286 287 287 286 287 286 284 282 281 282 283 284 285 285 284 285 284 281 280 279 280 281 283 284 283
282 286 288 285 283 283 285 286 287 287 289 291 291 293 294 293 291 290 289 288 288 288 286 285 285 285 285 284 283 283 283 285 286 286 285 284 282 280 280 282 283 284 284 283
279 283 286 283 280 281 283 285 285 283 285 288 290 291 292 292 291 292 292 291 290 289 286 285 285 285 285 286 285 285 285 285 285 285 284 283 281 281 282 283 285 286 285 284
279 282 285 284 281 281 282 283 283 282 284 285 287 290 292 292 290 291 294 293 292 291 289 286 285 284 285 286 286 286 286 284 284 284 284 283 282 282 282 282 284 286 286 284
278 280 282 283 281 281 282 283 282 281 282 283 286 289 291 290 288 291 294 293 292 291 290 288 285 285 286 286 287 287 286 285 284 284 282 281 281 282 282 282 283 284 284 283
276 278 280 282 282 282 282 283 284 282 282 283 285 288 289 289 288 289 291 293 292 292 292 289 287 286 286 287 287 287 287 286 285 283 281 280 282 283 284 285 285 286 284 282
275 277 280 282 282 281 282 283 283 282 282 283 286 287 288 287 288 288 289 291 291 291 290 289 288 287 286 286 286 287 288 287 285 283 281 280 282 284 286 286 286 285 283 280
275 276 279 282 283 282 282 283 283 282 281 283 286 287 287 287 288 289 289 290 291 291 290 289 288 286 285 286 287 288 287 286 284 283 281 281 282 285 287 287 286 285 284 282
276 277 279 281 282 282 282 283 282 282 282 284 285 287 287 287 287 288 289 290 291 291 291 289 288 286 285 286 288 289 287 285 282 280 281 282 284 285 285 284 284 284 285 285
277 279 280 281 281 280 281 282 284 283 282 283 284 286 287 287 287 286 287 290 291 291 291 290 288 286 286 287 288 288 286 285 283 279 279 281 284 286 284 282 282 282 284 286
277 278 279 280 281 281 283 283 284 283 282 283 284 286 286 287 289 288 288 289 290 292 292 291 289 287 286 287 288 287 284 283 281 279 279 281 284 285 284 281 280 282 284 286
278 278 279 280 280 281 283 284 283 282 282 283 284 287 288 288 289 290 289 289 292 292 291 291 290 288 287 287 287 286 284 282 279 279 280 281 284 285 283 280 278 280 284 286
278 278 280 280 278 279 282 283 282 281 282 285 287 287 287 287 288 288 289 289 291 291 291 291 291 290 289 287 285 285 284 281 278 276 277 279 282 282 281 280 279 280 283 285
279 279 279 278 278 278 279 280 281 281 282 284 286 286 286 286 287 286 288 289 289 290 291 292 291 289 288 287 285 284 282 281 279 277 279 281 282 281 281 282 282 282 283 285
279 280 280 280 279 278 277 278 281 282 283 284 284 284 284 284 284 284 285 287 289 290 291 292 291 288 285 285 285 284 283 282 281 280 281 283 284 283 281 282 284 284 284 284
279 280 280 281 280 279 278 279 280 282 282 283 283 283 283 282 282 284 285 287 288 290 290 290 289 288 285 285 285 284 282 280 279 280 281 282 283 283 282 282 284 284 284 284
278 279 280 281 281 280 279 279 280 282 282 282 282 282 282 281 281 283 285 286 288 288 288 289 288 286 286 285 284 282 281 279 279 279 280 282 282 282 282 282 282 284 284 284
276 277 278 279 280 280 280 280 280 280 279 279 280 281 282 281 281 282 283 285 286 287 287 286 285 284 284 285 285 283 282 281 280 280 281 283 283 281 280 279 280 282 284 284
275 275 277 278 279 280 280 280 279 279 278 278 278 279 281 281 280 281 283 284 285 286 285 284 284 286 285 285 284 284 283 283 282 281 282 283 282 280 279 279 280 281 282 283
277 276 277 278 279 280 280 280 279 278 277 276 276 277 279 280 279 280 282 284 284 284 284 284 285 287 286 284 283 282 282 282 281 282 283 284 283 281 279 279 280 281 282 283
Height
5609 5608 5607 5605 5605 5603 5600 5598 5596 5595 5593 5591 5589 5586 5584 5582 5581 5580 5579 5578 5577 5577 5577 5577 5577 5577 5577 5576 5576 5575 5575 5574 5573 5572 5572 5571 5570 5570 5570 5569 5568 5568 5567 5567
5603 5602 5600 5599 5599 5597 5595 5593 5591 5589 5588 5586 5583 5580 5578 5576 5575 5574 5573 5572 5572 5571 5571 5571 5571 5571 5570 5570 5569 5568 5567 5566 5565 5564 5564 5563 5562 5562 5561 5561 5560 5559 5559 5558
5596 5596 5593 5593 5594 5591 5589 5588 5586 5583 5583 5580 5577 5575 5573 5571 5570 5569 5568 5567 5566 5566 5565 5565 5565 5564 5563 5563 5562 5561 5560 5559 5558 5557 5556 5555 5554 5553 5553 5552 5551 5551 5550 5549
5589 5589 5587 5591 5587 5585 5583 5582 5580 5578 5576 5574 5572 5570 5568 5566 5565 5564 5563 5562 5561 5560 5560 5559 5558 5557 5557 5556 5555 5553 5552 5551 5550 5549 5548 5547 5546 5545 5544 5543 5543 5542 5542 5540
5582 5581 5580 5582 5581 5579 5577 5576 5575 5572 5571 5568 5566 5565 5563 5562 5560 5558 5557 5556 5555 5554 5553 5552 5552 5551 5550 5548 5547 5546 5545 5543 5542 5541 5540 5539 5538 5537 5536 5535 5535 5534 5533 5532
5576 5574 5574 5577 5574 5572 5571 5570 5569 5567 5564 5562 5560 5559 5559 5556 5554 5553 5551 5550 5549 5547 5546 5546 5545 5543 5542 5541 5540 5539 5537 5536 5534 5533 5532 5531 5530 5529 5528 5527 5527 5526 5525 5524
5569 5567 5567 5569 5567 5566 5565 5565 5562 5560 5558 5556 5554 5553 5552 5550 5549 5547 5545 5543 5542 5541 5539 5538 5537 5536 5534 5534 5533 5531 5529 5528 5526 5525 5524 5523 5522 5521 5520 5520 5519 5518 5517 5517
5562 5561 5564 5562 5560 5559 5558 5556 5555 5554 5552 5550 5549 5547 5545 5544 5542 5540 5539 5537 5536 5534 5533 5531 5530 5529 5527 5526 5525 5523 5521 5520 5518 5517 5516 5515 5514 5513 5513 5512 5511 5511 5510 5509
5557 5558 5556 5554 5553 5552 5551 5550 5548 5547 5546 5544 5542 5541 5539 5537 5535 5534 5532 5531 5529 5527 5526 5524 5522 5521 5520 5519 5517 5515 5514 5513 5511 5510 5508 5507 5506 5506 5505 5505 5504 5503 5502 5501
5550 5550 5549 5547 5546 5545 5544 5543 5541 5540 5539 5537 5536 5534 5532 5531 5529 5527 5525 5523 5521 5520 5518 5517 5515 5514 5513 5511 5510 5508 5507 5505 5504 5503 5501 5500 5499 5498 5498 5497 5497 5496 5494 5493
5542 5543 5541 5540 5539 5538 5537 5535 5534 5533 5531 5530 5529 5527 5525 5524 5522 5520 5518 5516 5514 5512 5511 5509 5508 5506 5505 5504 5502 5501 5499 5498 5497 5496 5494 5493 5492 5491 5491 5490 5489 5488 5487 5486
5535 5535 5533 5533 5531 5530 5529 5528 5527 5525 5524 5523 5521 5520 5518 5516 5515 5513 5511 5509 5507 5506 5504 5502 5500 5499 5498 5496 5495 5494 5492 5491 5490 5489 5487 5486 5486 5485 5483 5482 5481 5480 5479 5478
5528 5527 5525 5524 5523 5522 5521 5520 5519 5518 5516 5515 5514 5512 5511 5509 5507 5506 5504 5502 5501 5499 5497 5495 5494 5492 5491 5489 5488 5487 5485 5484 5483 5482 5481 5480 5479 5478 5477 5476 5474 5473 5471 5471
5519 5518 5517 5517 5516 5515 5513 5512 5511 5510 5509 5508 5507 5505 5504 5502 5501 5499 5497 5496 5494 5492 5490 5489 5487 5485 5484 5482 5481 5480 5478 5477 5476 5475 5474 5473 5472 5471 5470 5469 5468 5466 5465 5464
5511 5510 5510 5509 5508 5507 5506 5505 5504 5503 5502 5501 5499 5498 5497 5495 5494 5492 5491 5489 5487 5485 5484 5482 5480 5479 5477 5476 5474 5473 5472 5470 5469 5468 5467 5466 5466 5465 5464 5463 5462 5461 5459 5458
5504 5503 5502 5501 5500 5499 5498 5497 5496 5495 5494 5493 5492 5490 5489 5488 5486 5485 5483 5482 5480 5478 5476 5475 5473 5472 5470 5469 5468 5466 5465 5464 5463 5462 5461 5460 5459 5459 5457 5457 5456 5455 5454 5453
5496 5495 5494 5493 5492 5491 5491 5490 5489 5488 5487 5486 5485 5483 5482 5480 5479 5477 5476 5474 5473 5471 5469 5468 5466 5465 5463 5462 5461 5460 5458 5458 5457 5456 5455 5454 5454 5453 5452 5451 5450 5449 5449 5448
5488 5487 5486 5486 5485 5484 5483 5482 5481 5480 5480 5479 5477 5476 5475 5474 5472 5471 5469 5467 5466 5464 5463 5461 5459 5458 5457 5456 5454 5453 5452 5452 5451 5450 5450 5449 5448 5447 5446 5445 5445 5444 5444 5443
5480 5479 5479 5478 5477 5477 5476 5475 5474 5473 5473 5472 5471 5469 5468 5467 5465 5464 5462 5461 5459 5458 5456 5455 5453 5452 5451 5450 5448 5447 5446 5446 5445 5445 5444 5444 5443 5442 5441 5440 5440 5439 5439 5438
5472 5472 5471 5471 5470 5470 5469 5468 5467 5467 5466 5465 5464 5462 5461 5460 5458 5457 5456 5455 5453 5452 5450 5449 5447 5446 5445 5443 5443 5442 5441 5440 5440 5439 5439 5438 5438 5437 5436 5436 5435 5435 5434 5433
5465 5464 5464 5463 5463 5462 5462 5461 5460 5460 5459 5458 5457 5456 5454 5453 5452 5450 5449 5449 5447 5446 5445 5443 5442 5440 5439 5438 5437 5436 5435 5435 5434 5434 5433 5433 5432 5432 5431 5431 5430 5430 5429 5428
5458 5457 5457 5456 5456 5455 5455 5454 5453 5453 5452 5451 5450 5448 5447 5446 5445 5444 5443 5442 5441 5440 5439 5437 5436 5435 5433 5432 5432 5431 5430 5429 5429 5428 5428 5427 5427 5427 5426 5425 5425 5424 5424 5423
5451 5450 5449 5449 5448 5448 5448 5447 5446 5445 5444 5443 5442 5441 5440 5439 5438 5438 5437 5436 5435 5434 5433 5432 5430 5429 5428 5427 5426 5426 5425 5424 5424 5423 5423 5422 5422 5421 5421 5420 5420 5419 5418 5418
5443 5443 5442 5442 5441 5441 5440 5440 5439 5438 5437 5436 5435 5434 5433 5433 5432 5431 5430 5430 5429 5428 5427 5426 5425 5424 5423 5422 5421 5420 5420 5419 5419 5418 5418 5417 5417 5416 5416 5415 5414 5413 5413 5412
5435 5435 5434 5434 5434 5433 5433 5432 5431 5431 5430 5429 5428 5427 5427 5426 5425 5424 5424 5423 5422 5421 5420 5419 5418 5418 5417 5416 5415 5415 5414 5413 5413 5412 5412 5411 5411 5410 5409 5409 5408 5407 5407 5406
5427 5427 5426 5426 5426 5425 5425 5424 5424 5423 5422 5422 5421 5420 5420 5419 5418 5417 5417 5416 5415 5414 5414 5413 5412 5411 5410 5410 5409 5408 5408 5407 5406 5406 5405 5405 5404 5404 5403 5402 5402 5401 5400 5400
5418 5418 5418 5418 5417 5417 5416 5416 5415 5415 5414 5414 5413 5413 5412 5412 5411 5410 5410 5409 5408 5407 5407 5406 5405 5404 5403 5402 5402 5401 5401 5400 5400 5399 5399 5398 5398 5397 5396 5396 5395 5394 5394 5393